Location: CNYAC Observatory
(43.2150°N, 74.9500°W)
Time: 20:20:28
(UTC-04:00)

Cosmos 1975 Rocket - Visible Passes

Search period start: 22 April 2019 00:00
Search period end: 02 May 2019 00:00
Orbit: 603 x 635 km, 82.5° (Epoch: 21 April)

Date Brightness Start Highest point End Pass type
(mag) Time Alt. Az. Time Alt. Az. Time Alt. Az.
22 Apr 4.9 02:27:01 27° ENE 02:27:01 27° ENE 02:29:39 10° NNE visible
22 Apr 4.5 04:04:10 22° WNW 04:04:10 22° WNW 04:07:09 10° NNW visible
23 Apr 4.2 02:44:16 41° NE 02:44:16 41° NE 02:47:15 10° NNE visible
23 Apr 5.1 04:21:25 13° WNW 04:21:25 13° WNW 04:23:15 10° NW visible
24 Apr 3.9 03:01:29 45° N 03:01:29 45° N 03:04:35 10° N visible
25 Apr 5.6 01:41:33 16° ENE 01:41:33 16° ENE 01:43:01 10° NE visible
25 Apr 4.2 03:18:42 32° NW 03:18:42 32° NW 03:21:40 10° N visible
26 Apr 5.0 01:58:45 25° NE 01:58:45 25° NE 02:01:01 10° NNE visible
26 Apr 4.8 03:35:54 20° NW 03:35:54 20° NW 03:38:25 10° NNW visible
27 Apr 4.5 02:15:56 35° NNE 02:15:56 35° NNE 02:18:36 10° NNE visible
27 Apr 5.3 03:53:05 12° WNW 03:53:05 12° WNW 03:54:25 10° NW visible
28 Apr 4.2 02:33:06 38° N 02:33:06 38° N 02:35:54 10° N visible
29 Apr 5.6 01:13:07 15° ENE 01:13:07 15° ENE 01:14:26 10° NE visible
29 Apr 4.5 02:50:16 29° NW 02:50:16 29° NW 02:52:57 10° N visible
30 Apr 5.1 01:30:16 24° NE 01:30:16 24° NE 01:32:22 10° NNE visible
30 Apr 5.0 03:07:25 19° NW 03:07:25 19° NW 03:09:41 10° NNW visible
01 May 4.6 01:47:25 33° NNE 01:47:25 33° NNE 01:49:56 10° NNE visible
01 May 5.4 03:24:33 11° WNW 03:24:33 11° WNW 03:25:34 10° NW visible
